WetterOnline ( http://www.wetteronline.de )

Wetter aktuell Rotenburg

Aktuelles Wetter: Bad Hersfeld (273m)

6-stündlich | Neueste Meldungen
Ortszeit Temperatur Wetter
Fr, 20.10. 14:00 16.3° C wolkig
Fr, 20.10. 8:00 9.1° C bedeckt
Fr, 20.10. 2:00 8.7° C bedeckt
Do, 19.10. 20:00 13.2° C wolkig
Ortszeit Temperatur Wetter
Fr, 20.10. 14:00 16.3° C wolkig
Fr, 20.10. 13:30 14.4° C bewölkt
Fr, 20.10. 13:00 12.8° C leichter Regen
Fr, 20.10. 12:30 12.0° C wolkig
Fr, 20.10. 12:00 12.2° C bewölkt
Fr, 20.10. 11:30 11.6° C bewölkt
Ortszeit Relative Feuchte Sichtweite
Fr, 20.10. 14:00 72% 9 km
Fr, 20.10. 8:00 95% 6 km
Fr, 20.10. 2:00 96% 5.0 km
Do, 19.10. 20:00 77% 16 km
Ortszeit Relative Feuchte Sichtweite
Fr, 20.10. 14:00 72% 9 km
Fr, 20.10. 13:30 80% 9 km
Fr, 20.10. 13:00 91% 7 km
Fr, 20.10. 12:30 88% 6 km
Fr, 20.10. 12:00 87% 8 km
Fr, 20.10. 11:30 91% 7 km
Ortszeit Niederschlagsmenge Niederschlagsart
Fr, 20.10. 14:00 0.6 l/m2 in 6 Std. Regen
Fr, 20.10. 8:00 0.0 l/m2 in 12 Std. -
Fr, 20.10. 2:00 0.0 l/m2 in 6 Std. -
Do, 19.10. 20:00 0.0 l/m2 in 12 Std. -
Ortszeit Niederschlagsmenge Niederschlagsart
Fr, 20.10. 14:00 0.3 l/m2 in 1 Std. Regen
Fr, 20.10. 13:30 keine Meldung -
Fr, 20.10. 13:00 0.3 l/m2 in 1 Std. Regen
Fr, 20.10. 12:30 keine Meldung -
Fr, 20.10. 12:00 0.1 l/m2 in 1 Std. Regen
Fr, 20.10. 11:30 keine Meldung -
Ortszeit Stärke Spitze Richtung
km/h Bft. km/h Grad Sektor
Fr, 20.10. 14:00 22 4 32 180° S
Fr, 20.10. 8:00 2 1 6 230° SW
Fr, 20.10. 2:00 0 0 7 - -
Do, 19.10. 20:00 4 1 29 180° S
Ortszeit Stärke Spitze Richtung
km/h Bft. km/h Grad Sektor
Fr, 20.10. 14:00 22 4 32 180° S
Fr, 20.10. 13:30 14 3 32 170° S
Fr, 20.10. 13:00 6 1 7 160° S
Fr, 20.10. 12:30 2 1 6 330° NW
Fr, 20.10. 12:00 4 1 7 260° W
Fr, 20.10. 11:30 0 0 4 - -
Ortszeit Untergrenze Bedeckung Gattung
total tief tief mittel hoch
Fr, 20.10. 14:00 2400 m 7/8 4/8 - - -
Fr, 20.10. 8:00 3000 m 8/8 8/8 - - -
Fr, 20.10. 2:00 3600 m 8/8 8/8 - - -
Do, 19.10. 20:00 9000 m 8/8 0/8 - - -
Ortszeit Bedeckungsgrad in Achtel und Wolkenuntergrenze
Fr, 20.10. 14:00 4(2400m) 6(3900m) 7(4500m)
Fr, 20.10. 13:30 2(30m) 7(2400m) 8(3300m)
Fr, 20.10. 13:00 5(30m) 6(2100m) 8(2700m)
Fr, 20.10. 12:30 2(2100m) 8(3000m) 8(3300m)
Fr, 20.10. 12:00 2(2100m) 5(2700m) 8(3300m)
Fr, 20.10. 11:30 5(2400m) 8(3000m) 8(3900m)
Ortszeit Luftdruck NN (hPa) Tendenz (hPa in 3 Std.)
Fr, 20.10. 14:00 1012 - 0,8
Fr, 20.10. 8:00 1013 - 0,3
Fr, 20.10. 2:00 1014 - 0,2
Do, 19.10. 20:00 1013 + 0,7
Ortszeit Luftdruck NN (hPa) Tendenz (hPa in 3 Std.)
Fr, 20.10. 14:00 1012 - 0,8
Fr, 20.10. 13:30 1013 - 0,4
Fr, 20.10. 13:00 1013 + 0,2
Fr, 20.10. 12:30 1014 + 0,3
Fr, 20.10. 12:00 1014 + 1,1
Fr, 20.10. 11:30 1014 + 1,0
Ortszeit Schneehöhe (cm)
Fr, 20.10. 14:00 0
Fr, 20.10. 8:00 0
Fr, 20.10. 2:00 0
Do, 19.10. 20:00 0
Ortszeit Schneehöhe (cm)
Fr, 20.10. 14:00 0
Fr, 20.10. 13:30 0
Fr, 20.10. 13:00 0
Fr, 20.10. 12:30 0
Fr, 20.10. 12:00 0
Fr, 20.10. 11:30 0
Link zu dieser Seite / Seite empfehlen

Das Wetter in ...